FREGAT R/B, 43509

Orbit data source: Space-Track

FREGAT R/B, 43509 is space debris in MEO originally from a launch on Sat, 16 Jun 2018 UTC launched from the Plesetsk Missile And Space Complex (PKMTR). Debris objects in space refer to the collection of defunct objects orbiting the Earth. Examples of debris include non-operational satellites, rocket bodies, and fragments generated from explosions, collisions, or faulty payload assembly.

Loading next visibility...
FREGAT R/B details
Identifier
43509, 2018-053B
Orbit
MEO
Last TLE update3 days ago
Origin
Flag of CISLavochkin (CIS)
ManufacturerLavochkin
MissionSpacecraft
Bus & MotorFREGAT, Unknown motor
Mass1,000 kg wet, 1,000 kg dry
Launch date (UTC)
2018-06-16 (6 years ago)
Launch vehicleUnknown
Launch site
Plesetsk Missile And Space Complex (PKMTR)
Object type
Payload
Rocket body
Debris
Shape & HBRIrr, 3.48 m
Radar Cross Section12.110 m², Large (>1 m²)

Expand to show TLE details & history

TLE from 3 days ago
0 FREGAT R/B
1 43509U 18053B   24337.21204393  .00000016  00000-0  00000-0 0  9998
2 43509  65.3058  96.0390 0092507  94.6280 266.4092  2.09215962 49388
Epoch: 2024-12-02T05:05Z
Definitive object data (Epoch: 2024-12-02T05:05:20.595Z)
Latitude0.00003°
Longitude-51.84116°
Altitude19,462.356 km
Speed3.926 km/s
True Right ascension06h 24m 08s
True Declination0° 00' 00"
Sunlit
Object was in daylight at TLE epoch
Visualization TLE readout
Latitude61.52339°
Longitude5.81366°
Altitude19,229.196 km
Speed3.964 km/s
Apparent Right ascension11h 19m 19s
Apparent Declination50° 20' 33"
Sunlit
Object is in daylight
Visualization observer readout
Local Sidereal Time02:14:55
Azimuth26.552° NE
Elevation8.123°
Doppler factor1
Orbital elements
Apogee altitude19,683.266 km
Perigee altitude19,205.513 km
Semi-major axis25,822.526 km
Eccentricity0.0092507
Inclination65.3058°
RAAN96.039°
Arg. of periapsis94.628°
True anomaly265.35205°
Mean anomaly266.4092°
Eccentric anomaly265.88054°
Mean motion0.52305 °/min
BSTARUnknown
Orbital period688.27 mins
Loading maneuver chart data...
Loading historical data...
Loading historical data...
Loading historical data...
Loading historical data...
Loading historical data...
Loading historical data...
Loading historical data...
Other satellites on launch #53 in the year 2018 (2018-06-16 UTC)

FREGAT R/B Visibility forecast

Observer location: undefined°, undefined

Span
Click to sort rows by Start time (UTC) header in descending order
Start Az.
Max El. time (UTC)
Max El. Az.
Max El.
End time (UTC)
End Az.
344 mins2024-12-05 14:08:32.645Z278.302° WNW2024-12-05 17:25:32.645Z60.257° ENE43.576°2024-12-05 19:52:32.645Z160.656° S
|